Location: Rounton
(54.4000°N, 1.3500°W)
Time: 16:54:18
(UTC+01:00)

deb r/b Ablestar - Visible Passes

Search period start: 03 July 2022 00:00
Search period end: 13 July 2022 00:00
Orbit: 679 x 855 km, 66.7° (Epoch: 03 July)

Date Brightness Start Highest point End Pass type
(mag) Time Alt. Az. Time Alt. Az. Time Alt. Az.
03 Jul ? 03:32:54 10° SSE 03:37:07 22° ESE 03:41:22 10° ENE visible
04 Jul ? 02:56:26 10° SE 02:59:31 15° ESE 03:02:40 10° ENE visible
06 Jul ? 03:20:48 10° S 03:25:53 34° ESE 03:31:01 10° NE visible
07 Jul ? 02:43:40 10° SSE 02:48:11 24° ESE 02:52:44 10° ENE visible
08 Jul ? 02:06:58 10° SE 02:10:34 17° ESE 02:14:11 10° ENE visible
08 Jul ? 03:46:54 10° SSW 03:52:38 71° SE 03:58:24 10° NE visible
09 Jul ? 01:31:08 10° ESE 01:33:01 12° E 01:34:55 10° E visible
09 Jul ? 03:09:22 11° SSW 03:14:46 53° ESE 03:20:22 10° NE visible
10 Jul ? 02:32:25 13° S 02:36:58 38° ESE 02:42:16 10° NE visible
11 Jul ? 01:55:24 14° SSE 01:59:15 28° ESE 02:04:03 10° ENE visible
11 Jul ? 03:35:58 10° SW 03:41:45 79° NW 03:47:34 10° NE visible
12 Jul ? 01:18:22 13° SE 01:21:37 20° ESE 01:25:37 10° ENE visible
12 Jul ? 02:58:35 13° SSW 03:03:47 79° SE 03:09:35 10° NE visible
